Location: Unspecified
(0.0000°N, 0.0000°E)
Time: 12:10:41
(UTC+00:00)

Vanguard 2 - Pass Details

Date: 15 December 2018
Orbit: 553 x 2938 km, 32.9° (Epoch: 15 July)

Event Time Altitude Azimuth Distance (km) Brightness Sun altitude
Rises 08:24:37 0° 249° (WSW) 6,790 12.0 33.9°
Reaches altitude 10° 08:32:49 10° 229° (SW) 5,622 11.8 35.7°
Maximum altitude 08:40:49 15° 199° (SSW) 4,866 11.9 37.4°
Drops below altitude 10° 08:47:49 10° 169° (S) 4,804 12.2 39.0°
Sets 08:53:47 0° 147° (SSE) 5,298 12.5 40.2°
